Regional Weather Roundup
Issued by NWS

Home | Current Version | Previous Version | Graphics & Text | Print | Product List | Glossary On
Versions: 1 2 3 4 5 6 7 8 9 10 11 12 13 14 15 16 17 18 19 20 21 22 23 24 25 26 27 28 29 30 31 32 33 34 35 36 37 38 39 40 41 42 43 44 45 46 47 48 49 50
000
ASUS45 KBOU 201207
RWRCO

WEATHER ROUNDUP FOR COLORADO
NATIONAL WEATHER SERVICE DENVER/BOULDER CO
600 AM MDT MON APR 20 2015

NOTE: "FAIR" INDICATES FEW OR NO CLOUDS BELOW 12000 FEET WITH NO
SIGNIFICANT WEATHER AND/OR OBSTRUCTIONS TO VISIBILITY.

COZ001>005-013-030-031-201300-
...NORTHWEST COLORADO...

CITY           SKY/WX    TMP DP  RH WIND       PRES   REMARKS
CRAIG          CLOUDY    35  33  92 NE3       30.03R
HAYDEN         CLOUDY    34  28  80 SE5       30.02S WCI  30
MEEKER         PTCLDY    34  30  85 CALM      30.01S
MOUNT WERNER   NOT AVBL
STEAMBOAT SPGS CLOUDY    31  30  96 E3        30.02S
WALDEN         MOCLDY    27  25  93 N5        30.01R WCI  21
$$

COZ006>008-011-201300-
...WEST CENTRAL VALLEYS...

CITY           SKY/WX    TMP DP  RH WIND       PRES   REMARKS
GRAND JUNCTION PTCLDY    42  39  89 SE9       29.98S
MONTROSE       CLOUDY    42  39  89 E8        30.02S
EAGLE          MOCLDY    34  34 100 CALM      30.04R
RIFLE          CLOUDY    38  34  85 E3        30.01S
DELTA          CLOUDY    44  41  88 NE3       30.02R
NUCLA          MOCLDY    39  36  87 CALM      30.03S
$$

COZ017>023-064>068-201300-
...SOUTHWEST COLORADO...

CITY           SKY/WX    TMP DP  RH WIND       PRES   REMARKS
DURANGO        CLOUDY    32  23  69 NE9       30.00F WCI  24
CORTEZ         CLEAR     32  27  81 E5        29.99S WCI  27
PAGOSA SPRINGS MOCLDY    38  25  59 SW6       30.03R
TELLURIDE      MOCLDY    33  32  95 SE5       30.08S WCI  29
WOLF CREEK PAS MOCLDY    23  21  93 SW28      30.12S WCI   6
$$

COZ009-010-012-014-032>034-037-058>063-201300-
...CENTRAL COLORADO...

CITY           SKY/WX    TMP DP  RH WIND       PRES   REMARKS
ASPEN          CLOUDY    33  29  85 CALM      30.01S
BUENA VISTA    CLOUDY    27  24  89 CALM      30.01R
COPPER MTN     CLOUDY    25  19  80 W17G24    30.03S WCI  11
BERTHOUD PASS  CLOUDY    16   9  73 NW24      29.99F WCI  -3
COTTONWOOD PAS LGT SNOW  28  27  93 N3        30.02R VSB 3/4
GUNNISON       PTCLDY    34  28  80 N5        30.04F WCI  30
KREMMLING      LGT SNOW  30  28  93 CALM      30.04S VSB 1
LEADVILLE      LGT SNOW  25  23  92 N5        30.00S FOG     WCI  19
MONARCH PASS   CLOUDY    21  21 100 MISG      30.15R
SALIDA         PTCLDY    31  28  89 CALM      30.07S
SUNLIGHT       FOG       30  30 100 W5        30.10S VSB<1/4 WCI  25
WILKERSON PASS LGT SNOW  21  19  93 W6        30.03S WCI  14
$$

COZ069>075-201300-
...SAN LUIS VALLEY/SANGRE DE CRISTO MOUNTAINS...

CITY           SKY/WX    TMP DP  RH WIND       PRES   REMARKS
ALAMOSA        CLOUDY    35  27  72 E5        30.01S WCI  31
LA VETA PASS   LGT SNOW  27  25  93 S6        30.03S WCI  20
SAGUACHE       PTCLDY    30  28  93 NW3       30.02S
$$

COZ035-036-038>040-201300-
...NORTHERN COLORADO FRONT RANGE...

CITY           SKY/WX    TMP DP  RH WIND       PRES   REMARKS
DENVER INTL AP MOCLDY    30  28  92 NE7       30.04R WCI  23
DMNS CITY PARK   N/A     34  26  72 E5        30.05R WCI  30
AURORA         MOCLDY    32  28  84 NE5       30.05R WCI  28
FRONT RANGE AP NOT AVBL
ERIE MUNI ARPT MOCLDY    32  32  98 NE3       30.05S
BOULDER MUN AP LGT RAIN  34  34 100 NE3       30.04S
CENTENNIAL     MOCLDY    33  26  75 CALM      30.04R
BROOMFIELD     FLURRIES  34  32  93 NE6       30.04F WCI  29
FORT COLLINS   MOCLDY    32  28  86 CALM      30.05F
LONGMONT       CLOUDY    36  32  86 CALM      30.06F
$$

COZ041-046-047-076>085-087-088-201300-
...PIKES PEAK/PALMER DIVIDE AND SOUTHERN FOOTHILLS...

CITY           SKY/WX    TMP DP  RH WIND       PRES   REMARKS
COLO. SPRINGS  CLOUDY    35  27  72 W3        30.02R
A. F. ACADEMY  CLOUDY    32  25  73 NW2       30.01R
ELLICOTT       CLOUDY   N/A N/A N/A CALM      30.01R
FALCON         CLOUDY    33  26  76 CALM      30.02S
FORT CARSON    CLOUDY    34  30  84 NW5       30.01R WCI  30
LIMON          CLOUDY    32  28  85 N7        30.03R WCI  26
MONUMENT HILL  LGT SNOW  30  27  86 NW9       30.02R WCI  22
TRINIDAD       CLOUDY    39  31  72 N3        29.99S
$$

COZ042>045-048>051-090-091-201300-
...NORTHEAST COLORADO...

CITY           SKY/WX    TMP DP  RH WIND       PRES   REMARKS
GREELEY ARPT   MOCLDY    34  27  75 W3        30.05F
AKRON          CLOUDY    34  27  75 W9        30.02R WCI  27
BURLINGTON     CLOUDY    34  27  75 W7        30.02S WCI  28
WRAY           PTCLDY    31  27  83 W8        30.01S WCI  24
STERLING       CLOUDY    34  28  80 NW9       30.01F WCI  26
HOLYOKE        CLEAR     34  27  75 W9        30.01R WCI  26
FORT MORGAN    CLOUDY    36  27  69 NW8       30.04F
$$

COZ086-089-092>099-201300-
...SOUTHEAST COLORADO...

CITY           SKY/WX    TMP DP  RH WIND       PRES   REMARKS
PUEBLO         PTCLDY    35  30  82 CALM      30.01S
LA JUNTA       PTCLDY    39  31  72 CALM      30.01F
LAMAR          CLOUDY    41  35  79 CALM      30.01R
SPRINGFIELD      N/A     39  32  76 N3        30.02R
$$



USA.gov is the U.S. government's official web portal to all federal, state and local government web resources and services.